BRU1978 UMMS-UUWW

Flight info

Callsign BRU1978
Flight time N/A
Altitude 35000
Route SORFO2F SORFO L979 PASUD T52 BILRU BILRU3A
Aircraft B738/M-SDE2E3FGHIRWXY/LB1

Departure

Time 2026-04-30 07:12
Airport Minsk National Airport (UMMS)

Arrival

Time N/A
Airport Vnukovo International Airport (UUWW)
Time Latitude Longitude Altitude Speed Heading
2026-04-30 06:50 53.88863 28.03421 668 ft 0 kts 344°
2026-04-30 07:00 53.88849 28.03427 668 ft 2 kts 345°
2026-04-30 07:00 53.88833 28.03434 667 ft 2 kts 346°
2026-04-30 07:00 53.88818 28.03441 666 ft 2 kts 347°
2026-04-30 07:01 53.88801 28.03446 668 ft 2 kts 350°
2026-04-30 07:01 53.88785 28.03450 665 ft 2 kts 356°
2026-04-30 07:01 53.88769 28.03450 668 ft 2 kts 14°
2026-04-30 07:01 53.88759 28.03443 667 ft 2 kts 44°
2026-04-30 07:02 53.88754 28.03435 667 ft 0 kts 49°
2026-04-30 07:04 53.88755 28.03436 667 ft 1 kts 48°
2026-04-30 07:04 53.88770 28.03458 668 ft 4 kts 39°
2026-04-30 07:04 53.88792 28.03503 668 ft 8 kts 51°
2026-04-30 07:05 53.88904 28.03711 667 ft 13 kts 51°
2026-04-30 07:05 53.88910 28.03846 667 ft 12 kts 117°
2026-04-30 07:05 53.88877 28.03975 668 ft 12 kts 83°
2026-04-30 07:06 53.88922 28.04089 668 ft 12 kts 43°
2026-04-30 07:06 53.88977 28.04189 668 ft 11 kts 47°
2026-04-30 07:06 53.89029 28.04286 668 ft 11 kts 48°
2026-04-30 07:06 53.89079 28.04383 668 ft 11 kts 54°
2026-04-30 07:07 53.89124 28.04504 668 ft 14 kts 56°
2026-04-30 07:07 53.89192 28.04637 668 ft 15 kts 65°
2026-04-30 07:07 53.89183 28.04806 668 ft 15 kts 70°
2026-04-30 07:07 53.89161 28.04951 667 ft 14 kts 139°
2026-04-30 07:08 53.89089 28.05058 668 ft 13 kts 139°
2026-04-30 07:08 53.89021 28.05160 668 ft 13 kts 139°
2026-04-30 07:08 53.88955 28.05259 668 ft 13 kts 139°
2026-04-30 07:08 53.88889 28.05357 668 ft 13 kts 139°
2026-04-30 07:09 53.88800 28.05486 667 ft 19 kts 140°
2026-04-30 07:09 53.88688 28.05650 668 ft 23 kts 140°
2026-04-30 07:09 53.88558 28.05842 668 ft 26 kts 138°
2026-04-30 07:09 53.88405 28.06065 668 ft 31 kts 139°
2026-04-30 07:10 53.88247 28.06298 668 ft 29 kts 140°
2026-04-30 07:10 53.88102 28.06527 668 ft 28 kts 142°
2026-04-30 07:10 53.87971 28.06746 668 ft 26 kts 138°
2026-04-30 07:10 53.88017 28.06953 666 ft 23 kts 22°
2026-04-30 07:11 53.88147 28.06841 665 ft 22 kts 309°
2026-04-30 07:11 53.88258 28.06662 664 ft 28 kts 324°
2026-04-30 07:11 53.88639 28.06132 664 ft 113 kts 317°
2026-04-30 07:11 53.89419 28.04987 827 ft 168 kts 318°
2026-04-30 07:12 53.90261 28.03666 1991 ft 164 kts 317°
2026-04-30 07:12 53.91116 28.02386 3209 ft 164 kts 320°
2026-04-30 07:12 53.92028 28.01051 4079 ft 188 kts 319°
2026-04-30 07:12 53.93063 27.99523 4871 ft 202 kts 319°
2026-04-30 07:13 53.94139 27.97924 5832 ft 209 kts 319°
2026-04-30 07:13 53.95354 27.96444 6639 ft 226 kts 339°
2026-04-30 07:13 53.96944 27.96312 7521 ft 234 kts
2026-04-30 07:13 53.98551 27.97004 7923 ft 239 kts 15°
2026-04-30 07:14 54.00151 27.97820 8011 ft 240 kts 15°
2026-04-30 07:14 54.01736 27.98608 8012 ft 241 kts 14°
2026-04-30 07:14 54.03375 27.99400 8004 ft 242 kts 14°
2026-04-30 07:14 54.04941 28.00353 7978 ft 244 kts 28°
2026-04-30 07:15 54.06091 28.02454 7995 ft 249 kts 65°
2026-04-30 07:15 54.06442 28.05345 8007 ft 252 kts 85°
2026-04-30 07:15 54.06431 28.08347 8001 ft 254 kts 89°
2026-04-30 07:15 54.06382 28.11354 8001 ft 254 kts 89°
2026-04-30 07:16 54.06349 28.14369 7977 ft 255 kts 89°
2026-04-30 07:16 54.06327 28.17401 7970 ft 255 kts 88°
2026-04-30 07:16 54.06310 28.20418 7975 ft 254 kts 88°
2026-04-30 07:16 54.06340 28.23423 7975 ft 256 kts 83°
2026-04-30 07:17 54.06531 28.26498 8155 ft 273 kts 81°
2026-04-30 07:17 54.06746 28.29742 8985 ft 276 kts 81°
2026-04-30 07:17 54.07146 28.36299 10718 ft 282 kts 81°
2026-04-30 07:18 54.07519 28.39557 11460 ft 282 kts 63°
2026-04-30 07:18 54.08554 28.42471 11867 ft 297 kts 52°
2026-04-30 07:18 54.09787 28.45493 12009 ft 322 kts 53°
2026-04-30 07:18 54.11033 28.48816 12205 ft 345 kts 56°
2026-04-30 07:19 54.12286 28.52440 12379 ft 365 kts 57°
2026-04-30 07:19 54.13604 28.56249 12769 ft 377 kts 57°
2026-04-30 07:19 54.14956 28.60099 13488 ft 379 kts 56°
2026-04-30 07:19 54.16321 28.63945 14273 ft 379 kts 56°
2026-04-30 07:20 54.17696 28.67795 14944 ft 381 kts 56°
2026-04-30 07:20 54.19085 28.71675 15578 ft 384 kts 56°
2026-04-30 07:20 54.20485 28.75587 16166 ft 388 kts 56°
2026-04-30 07:20 54.21899 28.79542 16761 ft 391 kts 56°
2026-04-30 07:21 54.23298 28.83462 17444 ft 391 kts 56°
2026-04-30 07:21 54.24718 28.87453 18090 ft 393 kts 56°
2026-04-30 07:21 54.26145 28.91466 18682 ft 396 kts 55°
2026-04-30 07:21 54.27578 28.95501 19209 ft 397 kts 55°
2026-04-30 07:22 54.30074 29.03963 20199 ft 413 kts 75°
2026-04-30 07:22 54.30171 29.08928 20907 ft 417 kts 86°
2026-04-30 07:22 54.30113 29.13878 21487 ft 415 kts 81°
2026-04-30 07:23 54.30798 29.18589 21675 ft 407 kts 59°
2026-04-30 07:23 54.32138 29.22788 22449 ft 399 kts 56°
2026-04-30 07:23 54.33373 29.27089 22811 ft 411 kts 67°
2026-04-30 07:23 54.33521 29.32050 23134 ft 435 kts 92°
2026-04-30 07:24 54.32962 29.37129 23862 ft 434 kts 93°
2026-04-30 07:24 54.32689 29.42245 23943 ft 427 kts 76°
2026-04-30 07:24 54.33713 29.46838 24266 ft 408 kts 53°
2026-04-30 07:24 54.35265 29.50866 24760 ft 405 kts 52°
2026-04-30 07:25 54.36535 29.55270 24847 ft 426 kts 71°
2026-04-30 07:25 54.36627 29.60440 25316 ft 438 kts 86°
2026-04-30 07:25 54.36406 29.65660 25668 ft 439 kts 85°
2026-04-30 07:25 54.36686 29.70796 25732 ft 430 kts 68°
2026-04-30 07:26 54.37643 29.75627 26125 ft 425 kts 64°
2026-04-30 07:26 54.38589 29.80428 26543 ft 428 kts 71°
2026-04-30 07:26 54.38745 29.85613 26886 ft 444 kts 87°
2026-04-30 07:26 54.38435 29.90876 27451 ft 441 kts 88°
2026-04-30 07:27 54.38384 29.96001 27740 ft 428 kts 72°
2026-04-30 07:27 54.39542 30.00537 28006 ft 411 kts 51°
2026-04-30 07:27 54.41251 30.04410 28639 ft 404 kts 48°
2026-04-30 07:27 54.42931 30.08288 29057 ft 406 kts 52°
2026-04-30 07:28 54.44347 30.12514 29363 ft 411 kts 58°
2026-04-30 07:28 54.45551 30.17002 29758 ft 412 kts 61°
2026-04-30 07:28 54.46651 30.21547 30232 ft 411 kts 62°
2026-04-30 07:28 54.47725 30.26098 30606 ft 410 kts 62°
2026-04-30 07:29 54.48809 30.30651 30840 ft 413 kts 62°
2026-04-30 07:29 54.49925 30.35250 30860 ft 420 kts 62°
2026-04-30 07:29 54.51067 30.39896 31048 ft 422 kts 62°
2026-04-30 07:29 54.52215 30.44539 31350 ft 421 kts 62°
2026-04-30 07:30 54.54520 30.53845 31838 ft 424 kts 62°
2026-04-30 07:30 54.55662 30.58466 32026 ft 426 kts 62°
2026-04-30 07:30 54.56825 30.63181 32263 ft 427 kts 62°
2026-04-30 07:31 54.57984 30.67893 32515 ft 428 kts 63°
2026-04-30 07:31 54.59148 30.72638 32741 ft 429 kts 63°
2026-04-30 07:31 54.60309 30.77384 32953 ft 431 kts 63°
2026-04-30 07:31 54.61474 30.82154 33187 ft 432 kts 63°
2026-04-30 07:32 54.62640 30.86940 33421 ft 433 kts 63°
2026-04-30 07:32 54.63805 30.91731 33646 ft 434 kts 63°
2026-04-30 07:32 54.64975 30.96547 33864 ft 435 kts 63°
2026-04-30 07:32 54.66146 31.01382 34087 ft 436 kts 63°
2026-04-30 07:33 54.67285 31.06267 34307 ft 439 kts 66°
2026-04-30 07:33 54.68272 31.11273 34488 ft 441 kts 68°
2026-04-30 07:33 54.69171 31.16349 34669 ft 442 kts 69°
2026-04-30 07:33 54.70030 31.21396 34826 ft 445 kts 70°
2026-04-30 07:34 54.70909 31.26562 34845 ft 449 kts 70°
2026-04-30 07:34 54.71801 31.31740 35022 ft 450 kts 70°
2026-04-30 07:34 54.72702 31.36908 35281 ft 448 kts 70°
2026-04-30 07:35 54.74533 31.47281 35304 ft 451 kts 69°
2026-04-30 07:35 54.76361 31.57628 35304 ft 448 kts 70°
2026-04-30 07:36 54.78171 31.67927 35294 ft 446 kts 70°
2026-04-30 07:36 54.79988 31.78326 35300 ft 445 kts 70°
2026-04-30 07:37 54.81741 31.88425 35298 ft 444 kts 70°
2026-04-30 07:37 54.83514 31.98698 35300 ft 445 kts 70°
2026-04-30 07:38 54.85284 32.09007 35303 ft 447 kts 70°
2026-04-30 07:38 54.87055 32.19386 35298 ft 450 kts 70°
2026-04-30 07:39 54.88830 32.29850 35297 ft 453 kts 70°
2026-04-30 07:39 54.90604 32.40381 35305 ft 455 kts 70°
2026-04-30 07:40 54.92375 32.50953 35295 ft 456 kts 71°
2026-04-30 07:40 54.94132 32.61502 35294 ft 456 kts 71°
2026-04-30 07:41 54.95889 32.72107 35292 ft 456 kts 71°
2026-04-30 07:41 54.97634 32.82740 35288 ft 456 kts 71°
2026-04-30 07:42 54.99365 32.93377 35294 ft 457 kts 71°
2026-04-30 07:42 55.01093 33.04054 35299 ft 458 kts 71°
2026-04-30 07:43 55.02814 33.14756 35295 ft 459 kts 71°
2026-04-30 07:43 55.04517 33.25410 35294 ft 459 kts 72°
2026-04-30 07:44 55.06221 33.36139 35292 ft 459 kts 72°
2026-04-30 07:44 55.07917 33.46882 35290 ft 459 kts 72°
2026-04-30 07:45 55.09602 33.57628 35292 ft 459 kts 72°
2026-04-30 07:45 55.11279 33.68392 35305 ft 459 kts 72°
2026-04-30 07:46 55.12949 33.79177 35297 ft 461 kts 72°
2026-04-30 07:46 55.14614 33.89998 35288 ft 462 kts 72°
2026-04-30 07:47 55.16274 34.00867 35285 ft 463 kts 72°
2026-04-30 07:47 55.17925 34.11748 35195 ft 464 kts 73°
2026-04-30 07:47 55.18757 34.17254 34530 ft 469 kts 72°
2026-04-30 07:48 55.19573 34.22672 33959 ft 464 kts 72°
2026-04-30 07:48 55.20393 34.28140 33043 ft 466 kts 72°
2026-04-30 07:48 55.20948 34.31854 32574 ft 464 kts 72°
2026-04-30 07:48 55.21759 34.37301 32042 ft 458 kts 72°
2026-04-30 07:49 55.22553 34.42646 31198 ft 460 kts 72°
2026-04-30 07:49 55.23355 34.48061 30529 ft 457 kts 72°
2026-04-30 07:49 55.24148 34.53436 29530 ft 457 kts 72°
2026-04-30 07:49 55.24942 34.58827 28807 ft 453 kts 72°
2026-04-30 07:50 55.25726 34.64175 27750 ft 455 kts 72°
2026-04-30 07:50 55.26507 34.69510 27050 ft 449 kts 72°
2026-04-30 07:50 55.27284 34.74837 26021 ft 453 kts 72°
2026-04-30 07:50 55.28054 34.80149 25511 ft 444 kts 73°
2026-04-30 07:51 55.28805 34.85372 24868 ft 439 kts 73°
2026-04-30 07:51 55.29541 34.90532 24267 ft 434 kts 73°
2026-04-30 07:51 55.30268 34.95646 23598 ft 430 kts 73°
2026-04-30 07:51 55.30989 35.00724 22884 ft 425 kts 73°
2026-04-30 07:52 55.31697 35.05729 22292 ft 419 kts 73°
2026-04-30 07:52 55.32396 35.10681 21630 ft 415 kts 73°
2026-04-30 07:52 55.33075 35.15507 21055 ft 410 kts 73°
2026-04-30 07:52 55.33755 35.20349 20423 ft 407 kts 73°
2026-04-30 07:53 55.34426 35.25146 19837 ft 403 kts 73°
2026-04-30 07:53 55.35093 35.29925 19234 ft 402 kts 74°
2026-04-30 07:53 55.35747 35.34630 19134 ft 387 kts 74°
2026-04-30 07:53 55.36377 35.39184 18844 ft 386 kts 74°
2026-04-30 07:54 55.37011 35.43757 18778 ft 380 kts 74°
2026-04-30 07:54 55.37625 35.48206 18571 ft 370 kts 74°
2026-04-30 07:54 55.38218 35.52533 18404 ft 358 kts 74°
2026-04-30 07:54 55.38737 35.56763 18202 ft 350 kts 82°
2026-04-30 07:55 55.38520 35.61014 17901 ft 348 kts 101°
2026-04-30 07:55 55.37922 35.65099 17510 ft 346 kts 103°
2026-04-30 07:55 55.37365 35.69188 17208 ft 340 kts 99°
2026-04-30 07:55 55.36949 35.73283 16786 ft 339 kts 97°
2026-04-30 07:56 55.36569 35.77349 16464 ft 336 kts 97°
2026-04-30 07:56 55.36164 35.81338 16091 ft 335 kts 98°
2026-04-30 07:56 55.35718 35.85357 15744 ft 334 kts 99°
2026-04-30 07:56 55.35257 35.89349 15397 ft 332 kts 99°
2026-04-30 07:57 55.34793 35.93323 15050 ft 331 kts 99°
2026-04-30 07:57 55.34331 35.97276 14716 ft 329 kts 99°
2026-04-30 07:57 55.33872 36.01210 14388 ft 328 kts 99°
2026-04-30 07:57 55.33414 36.05127 14058 ft 327 kts 100°
2026-04-30 07:58 55.32958 36.09027 13689 ft 325 kts 100°
2026-04-30 07:58 55.32502 36.12910 13347 ft 323 kts 100°
2026-04-30 07:58 55.32048 36.16769 13032 ft 321 kts 100°
2026-04-30 07:58 55.31596 36.20601 12671 ft 320 kts 100°
2026-04-30 07:59 55.31152 36.24353 12396 ft 316 kts 100°
2026-04-30 07:59 55.30705 36.28127 12049 ft 316 kts 100°
2026-04-30 07:59 55.30257 36.31896 11715 ft 315 kts 100°
2026-04-30 08:00 55.29358 36.39379 11088 ft 312 kts 101°
2026-04-30 08:00 55.28889 36.43083 10778 ft 309 kts 101°
2026-04-30 08:00 55.28416 36.46750 10487 ft 306 kts 101°
2026-04-30 08:00 55.27950 36.50368 10191 ft 303 kts 101°
2026-04-30 08:01 55.27497 36.53887 10190 ft 285 kts 101°
2026-04-30 08:01 55.27066 36.57222 9671 ft 286 kts 101°
2026-04-30 08:01 55.26631 36.60589 9379 ft 279 kts 102°
2026-04-30 08:01 55.26025 36.63799 9009 ft 277 kts 117°
2026-04-30 08:02 55.23944 36.69236 8544 ft 264 kts 122°
2026-04-30 08:02 55.22986 36.71936 8292 ft 259 kts 119°
2026-04-30 08:03 55.21146 36.77341 7932 ft 250 kts 120°
2026-04-30 08:03 55.19464 36.82206 7730 ft 222 kts 120°
2026-04-30 08:03 55.18681 36.84457 7443 ft 217 kts 120°
2026-04-30 08:04 55.17897 36.86720 7267 ft 211 kts 119°
2026-04-30 08:04 55.17137 36.88912 7258 ft 210 kts 119°
2026-04-30 08:04 55.16390 36.91064 7264 ft 202 kts 120°
2026-04-30 08:04 55.15675 36.93124 7240 ft 195 kts 119°
2026-04-30 08:05 55.14968 36.95157 7265 ft 196 kts 120°
2026-04-30 08:05 55.14259 36.97192 7242 ft 196 kts 119°
2026-04-30 08:05 55.13549 36.99229 7264 ft 196 kts 119°
2026-04-30 08:05 55.12848 37.01236 7246 ft 196 kts 119°
2026-04-30 08:06 55.12140 37.03268 7255 ft 195 kts 117°
2026-04-30 08:06 55.11844 37.05517 7170 ft 193 kts 79°
2026-04-30 08:06 55.12370 37.07634 6979 ft 186 kts 55°
2026-04-30 08:06 55.13037 37.09580 6809 ft 186 kts 58°
2026-04-30 08:07 55.13664 37.11532 6743 ft 184 kts 57°
2026-04-30 08:07 55.14286 37.13484 6673 ft 183 kts 58°
2026-04-30 08:07 55.14905 37.15423 6592 ft 182 kts 58°
2026-04-30 08:07 55.15525 37.17357 6505 ft 182 kts 58°
2026-04-30 08:08 55.16143 37.19284 6416 ft 181 kts 57°
2026-04-30 08:08 55.16759 37.21202 6345 ft 180 kts 58°
2026-04-30 08:08 55.17375 37.23116 6277 ft 180 kts 57°
2026-04-30 08:08 55.17991 37.25030 6194 ft 181 kts 57°
2026-04-30 08:09 55.18603 37.26929 6129 ft 181 kts 57°
2026-04-30 08:09 55.19231 37.28882 6043 ft 182 kts 58°
2026-04-30 08:09 55.19844 37.30788 5980 ft 182 kts 58°
2026-04-30 08:09 55.20465 37.32721 5900 ft 183 kts 58°
2026-04-30 08:10 55.21089 37.34662 5824 ft 183 kts 57°
2026-04-30 08:10 55.21894 37.36347 5690 ft 181 kts 25°
2026-04-30 08:10 55.23074 37.36665 5710 ft 170 kts 358°
2026-04-30 08:10 55.24281 37.36664 5628 ft 177 kts
2026-04-30 08:11 55.25511 37.36715 5549 ft 176 kts
2026-04-30 08:11 55.26731 37.36777 5462 ft 174 kts
2026-04-30 08:11 55.27938 37.36843 5378 ft 173 kts
2026-04-30 08:11 55.29133 37.36911 5312 ft 171 kts